Year,Month,Day,Hour,Minute,Value (Times are PST for temperature in C)
2008,07,24,00,00,11.60
2008,07,24,00,01,11.60
2008,07,24,00,02,11.50
2008,07,24,00,03,11.50
2008,07,24,00,04,11.50
2008,07,24,00,05,11.40
2008,07,24,00,06,11.40
2008,07,24,00,07,11.40
2008,07,24,00,08,11.40
2008,07,24,00,09,11.40
2008,07,24,00,10,11.30
2008,07,24,00,11,11.30
2008,07,24,00,12,11.30
2008,07,24,00,13,11.30
2008,07,24,00,14,11.30
2008,07,24,00,15,11.30
2008,07,24,00,16,11.20
2008,07,24,00,17,11.20
2008,07,24,00,18,11.20
2008,07,24,00,19,11.20
2008,07,24,00,20,11.20
2008,07,24,00,21,11.20
2008,07,24,00,22,11.10
2008,07,24,00,23,11.10
2008,07,24,00,24,11.10
2008,07,24,00,25,11.10
2008,07,24,00,26,11.10
2008,07,24,00,27,11.00
2008,07,24,00,28,11.00
2008,07,24,00,29,11.00
2008,07,24,00,30,10.90
2008,07,24,00,31,10.90
2008,07,24,00,32,10.90
2008,07,24,00,33,10.90
2008,07,24,00,34,10.90
2008,07,24,00,35,10.90
2008,07,24,00,36,10.90
2008,07,24,00,37,10.90
2008,07,24,00,38,10.80
2008,07,24,00,39,10.80
2008,07,24,00,40,10.80
2008,07,24,00,41,10.80
2008,07,24,00,42,10.80
2008,07,24,00,43,10.80
2008,07,24,00,44,10.80
2008,07,24,00,45,10.80
2008,07,24,00,46,10.80
2008,07,24,00,47,10.80
2008,07,24,00,48,10.80
2008,07,24,00,49,10.80
2008,07,24,00,50,10.80
2008,07,24,00,51,10.80
2008,07,24,00,52,10.80
2008,07,24,00,53,10.70
2008,07,24,00,54,10.70
2008,07,24,00,55,10.70
2008,07,24,00,56,10.70
2008,07,24,00,57,10.70
2008,07,24,00,58,10.70
2008,07,24,00,59,10.70
2008,07,24,01,00,10.60
2008,07,24,01,01,10.60
2008,07,24,01,02,10.60
2008,07,24,01,03,10.60
2008,07,24,01,04,10.60
2008,07,24,01,05,10.60
2008,07,24,01,06,10.60
2008,07,24,01,07,10.50
2008,07,24,01,08,10.50
2008,07,24,01,09,10.50
2008,07,24,01,10,10.50
2008,07,24,01,11,10.50
2008,07,24,01,12,10.50
2008,07,24,01,13,10.40
2008,07,24,01,14,10.40
2008,07,24,01,15,10.40
2008,07,24,01,16,10.40
2008,07,24,01,17,10.40
2008,07,24,01,18,10.40
2008,07,24,01,19,10.30
2008,07,24,01,20,10.30
2008,07,24,01,21,10.30
2008,07,24,01,22,10.30
2008,07,24,01,23,10.20
2008,07,24,01,24,10.20
2008,07,24,01,25,10.20
2008,07,24,01,26,10.10
2008,07,24,01,27,10.10
2008,07,24,01,28,10.10
2008,07,24,01,29,10.00
2008,07,24,01,30,10.00
2008,07,24,01,31,10.00
2008,07,24,01,32,9.90
2008,07,24,01,33,9.90
2008,07,24,01,34,9.90
2008,07,24,01,35,9.80
2008,07,24,01,36,9.80
2008,07,24,01,37,9.80
2008,07,24,01,38,9.80
2008,07,24,01,39,9.80
2008,07,24,01,40,9.70
2008,07,24,01,41,9.70
2008,07,24,01,42,9.70
2008,07,24,01,43,9.70
2008,07,24,01,44,9.70
2008,07,24,01,45,9.70
2008,07,24,01,46,9.60
2008,07,24,01,47,9.60
2008,07,24,01,48,9.60
2008,07,24,01,49,9.60
2008,07,24,01,50,9.60
2008,07,24,01,51,9.60
2008,07,24,01,52,9.60
2008,07,24,01,53,9.60
2008,07,24,01,54,9.60
2008,07,24,01,55,9.60
2008,07,24,01,56,9.60
2008,07,24,01,57,9.60
2008,07,24,01,58,9.60
2008,07,24,01,59,9.60
2008,07,24,02,00,9.50
2008,07,24,02,01,9.50
2008,07,24,02,02,9.50
2008,07,24,02,03,9.50
2008,07,24,02,04,9.50
2008,07,24,02,05,9.50
2008,07,24,02,06,9.40
2008,07,24,02,07,9.40
2008,07,24,02,08,9.40
2008,07,24,02,09,9.40
2008,07,24,02,10,9.40
2008,07,24,02,11,9.40
2008,07,24,02,12,9.30
2008,07,24,02,13,9.30
2008,07,24,02,14,9.30
2008,07,24,02,15,9.30
2008,07,24,02,16,9.30
2008,07,24,02,17,9.30
2008,07,24,02,18,9.30
2008,07,24,02,19,9.30
2008,07,24,02,20,9.30
2008,07,24,02,21,9.30
2008,07,24,02,22,9.30
2008,07,24,02,23,9.30
2008,07,24,02,24,9.30
2008,07,24,02,25,9.30
2008,07,24,02,26,9.30
2008,07,24,02,27,9.30
2008,07,24,02,28,9.30
2008,07,24,02,29,9.30
2008,07,24,02,30,9.30
2008,07,24,02,31,9.30
2008,07,24,02,32,9.30
2008,07,24,02,33,9.30
2008,07,24,02,34,9.30
2008,07,24,02,35,9.30
2008,07,24,02,36,9.30
2008,07,24,02,37,9.30
2008,07,24,02,38,9.30
2008,07,24,02,39,9.20
2008,07,24,02,40,9.20
2008,07,24,02,41,9.20
2008,07,24,02,42,9.20
2008,07,24,02,43,9.20
2008,07,24,02,44,9.20
2008,07,24,02,45,9.20
2008,07,24,02,46,9.20
2008,07,24,02,47,9.20
2008,07,24,02,48,9.20
2008,07,24,02,49,9.20
2008,07,24,02,50,9.20
2008,07,24,02,51,9.20
2008,07,24,02,52,9.20
2008,07,24,02,53,9.20
2008,07,24,02,54,9.20
2008,07,24,02,55,9.20
2008,07,24,02,56,9.20
2008,07,24,02,57,9.10
2008,07,24,02,58,9.20
2008,07,24,02,59,9.10
2008,07,24,03,00,9.10
2008,07,24,03,01,9.10
2008,07,24,03,02,9.10
2008,07,24,03,03,9.10
2008,07,24,03,04,9.10
2008,07,24,03,05,9.10
2008,07,24,03,06,9.10
2008,07,24,03,07,9.10
2008,07,24,03,08,9.10
2008,07,24,03,09,9.10
2008,07,24,03,10,9.10
2008,07,24,03,11,9.10
2008,07,24,03,12,9.10
2008,07,24,03,13,9.10
2008,07,24,03,14,9.10
2008,07,24,03,15,9.10
2008,07,24,03,16,9.10
2008,07,24,03,17,9.10
2008,07,24,03,18,9.00
2008,07,24,03,19,9.10
2008,07,24,03,20,9.10
2008,07,24,03,21,9.10
2008,07,24,03,22,9.10
2008,07,24,03,23,9.10
2008,07,24,03,24,9.10
2008,07,24,03,25,9.10
2008,07,24,03,26,9.10
2008,07,24,03,27,9.10
2008,07,24,03,28,9.10
2008,07,24,03,29,9.10
2008,07,24,03,30,9.10
2008,07,24,03,31,9.10
2008,07,24,03,32,9.10
2008,07,24,03,33,9.10
2008,07,24,03,34,9.10
2008,07,24,03,35,9.10
2008,07,24,03,36,9.10
2008,07,24,03,37,9.10
2008,07,24,03,38,9.10
2008,07,24,03,39,9.10
2008,07,24,03,40,9.10
2008,07,24,03,41,9.10
2008,07,24,03,42,9.10
2008,07,24,03,43,9.10
2008,07,24,03,44,9.10
2008,07,24,03,45,9.10
2008,07,24,03,46,9.10
2008,07,24,03,47,9.10
2008,07,24,03,48,9.10
2008,07,24,03,49,9.10
2008,07,24,03,50,9.10
2008,07,24,03,51,9.10
2008,07,24,03,52,9.10
2008,07,24,03,53,9.10
2008,07,24,03,54,9.10
2008,07,24,03,55,9.10
2008,07,24,03,56,9.10
2008,07,24,03,57,9.10
2008,07,24,03,58,9.10
2008,07,24,03,59,9.10
2008,07,24,04,00,9.10
2008,07,24,04,01,9.10
2008,07,24,04,02,9.10
2008,07,24,04,03,9.10
2008,07,24,04,05,9.10
2008,07,24,04,06,9.10
2008,07,24,04,07,9.00
2008,07,24,04,08,9.00
2008,07,24,04,09,9.00
2008,07,24,04,10,9.00
2008,07,24,04,11,9.00
2008,07,24,04,12,9.00
2008,07,24,04,13,9.00
2008,07,24,04,14,9.00
2008,07,24,04,15,9.00
2008,07,24,04,16,9.00
2008,07,24,04,17,9.00
2008,07,24,04,18,9.00
2008,07,24,04,19,9.00
2008,07,24,04,20,9.00
2008,07,24,04,21,9.00
2008,07,24,04,22,9.00
2008,07,24,04,23,9.00
2008,07,24,04,24,8.90
2008,07,24,04,25,9.00
2008,07,24,04,26,8.90
2008,07,24,04,27,8.90
2008,07,24,04,28,9.00
2008,07,24,04,29,9.00
2008,07,24,04,30,9.00
2008,07,24,04,31,9.00
2008,07,24,04,32,9.00
2008,07,24,04,33,9.00
2008,07,24,04,34,9.00
2008,07,24,04,35,9.00
2008,07,24,04,36,9.00
2008,07,24,04,37,9.00
2008,07,24,04,38,9.00
2008,07,24,04,39,8.90
2008,07,24,04,40,8.90
2008,07,24,04,41,8.90
2008,07,24,04,42,8.90
2008,07,24,04,43,8.90
2008,07,24,04,44,8.90
2008,07,24,04,45,8.90
2008,07,24,04,46,8.80
2008,07,24,04,47,8.80
2008,07,24,04,48,8.80
2008,07,24,04,49,8.80
2008,07,24,04,50,8.80
2008,07,24,04,51,8.80
2008,07,24,04,52,8.80
2008,07,24,04,53,8.80
2008,07,24,04,54,8.80
2008,07,24,04,55,8.80
2008,07,24,04,56,8.80
2008,07,24,04,57,8.80
2008,07,24,04,58,8.80
2008,07,24,04,59,8.80
2008,07,24,05,00,8.80
2008,07,24,05,01,8.80
2008,07,24,05,02,8.80
2008,07,24,05,03,8.80
2008,07,24,05,04,8.80
2008,07,24,05,05,8.80
2008,07,24,05,06,8.80
2008,07,24,05,07,8.80
2008,07,24,05,08,8.80
2008,07,24,05,09,8.80
2008,07,24,05,10,8.80
2008,07,24,05,11,8.80
2008,07,24,05,12,8.80
2008,07,24,05,13,8.80
2008,07,24,05,14,8.80
2008,07,24,05,15,8.80
2008,07,24,05,16,8.80
2008,07,24,05,17,8.80
2008,07,24,05,18,8.80
2008,07,24,05,19,8.80
2008,07,24,05,20,8.80
2008,07,24,05,21,8.80
2008,07,24,05,22,8.70
2008,07,24,05,23,8.70
2008,07,24,05,24,8.70
2008,07,24,05,25,8.70
2008,07,24,05,26,8.70
2008,07,24,05,27,8.70
2008,07,24,05,28,8.70
2008,07,24,05,29,8.70
2008,07,24,05,30,8.70
2008,07,24,05,31,8.70
2008,07,24,05,32,8.70
2008,07,24,05,33,8.70
2008,07,24,05,34,8.70
2008,07,24,05,35,8.70
2008,07,24,05,36,8.70
2008,07,24,05,37,8.70
2008,07,24,05,38,8.70
2008,07,24,05,39,8.70
2008,07,24,05,40,8.70
2008,07,24,05,41,8.70
2008,07,24,05,42,8.70
2008,07,24,05,43,8.70
2008,07,24,05,44,8.70
2008,07,24,05,45,8.70
2008,07,24,05,46,8.70
2008,07,24,05,47,8.70
2008,07,24,05,48,8.70
2008,07,24,05,49,8.70
2008,07,24,05,50,8.70
2008,07,24,05,51,8.70
2008,07,24,05,52,8.70
2008,07,24,05,53,8.80
2008,07,24,05,54,8.80
2008,07,24,05,55,8.80
2008,07,24,05,56,8.80
2008,07,24,05,57,8.80
2008,07,24,05,58,8.80
2008,07,24,05,59,8.80
2008,07,24,06,00,8.80
2008,07,24,06,01,8.80
2008,07,24,06,02,8.70
2008,07,24,06,03,8.70
2008,07,24,06,04,8.80
2008,07,24,06,05,8.70
2008,07,24,06,06,8.80
2008,07,24,06,07,8.80
2008,07,24,06,08,8.80
2008,07,24,06,09,8.80
2008,07,24,06,10,8.80
2008,07,24,06,11,8.80
2008,07,24,06,12,8.80
2008,07,24,06,13,8.70
2008,07,24,06,14,8.80
2008,07,24,06,15,8.80
2008,07,24,06,16,8.80
2008,07,24,06,17,8.80
2008,07,24,06,18,8.80
2008,07,24,06,19,8.80
2008,07,24,06,20,8.80
2008,07,24,06,21,8.80
2008,07,24,06,22,8.80
2008,07,24,06,23,8.80
2008,07,24,06,24,8.80
2008,07,24,06,25,8.80
2008,07,24,06,26,8.90
2008,07,24,06,27,8.90
2008,07,24,06,28,8.90
2008,07,24,06,29,8.90
2008,07,24,06,30,8.90
2008,07,24,06,31,8.90
2008,07,24,06,32,8.90
2008,07,24,06,33,8.90
2008,07,24,06,34,9.00
2008,07,24,06,35,9.00
2008,07,24,06,36,9.00
2008,07,24,06,37,9.10
2008,07,24,06,38,9.10
2008,07,24,06,39,9.10
2008,07,24,06,40,9.10
2008,07,24,06,41,9.10
2008,07,24,06,42,9.20
2008,07,24,06,43,9.20
2008,07,24,06,44,9.20
2008,07,24,06,45,9.20
2008,07,24,06,46,9.30
2008,07,24,06,47,9.30
2008,07,24,06,48,9.30
2008,07,24,06,49,9.30
2008,07,24,06,50,9.40
2008,07,24,06,51,9.40
2008,07,24,06,52,9.40
2008,07,24,06,53,9.50
2008,07,24,06,54,9.50
2008,07,24,06,55,9.60
2008,07,24,06,56,9.60
2008,07,24,06,57,9.60
2008,07,24,06,58,9.60
2008,07,24,06,59,9.70
2008,07,24,07,00,9.70
2008,07,24,07,01,9.70
2008,07,24,07,02,9.70
2008,07,24,07,03,9.80
2008,07,24,07,04,9.80
2008,07,24,07,05,9.80
2008,07,24,07,06,9.90
2008,07,24,07,07,9.90
2008,07,24,07,08,9.90
2008,07,24,07,09,10.00
2008,07,24,07,10,10.00
2008,07,24,07,11,10.10
2008,07,24,07,12,10.10
2008,07,24,07,13,10.20
2008,07,24,07,14,10.20
2008,07,24,07,15,10.30
2008,07,24,07,16,10.30
2008,07,24,07,17,10.30
2008,07,24,07,18,10.40
2008,07,24,07,19,10.50
2008,07,24,07,20,10.50
2008,07,24,07,21,10.60
2008,07,24,07,22,10.70
2008,07,24,07,23,10.70
2008,07,24,07,24,10.80
2008,07,24,07,25,10.90
2008,07,24,07,26,10.90
2008,07,24,07,27,10.90
2008,07,24,07,28,11.00
2008,07,24,07,29,11.10
2008,07,24,07,30,11.10
2008,07,24,07,31,11.20
2008,07,24,07,32,11.30
2008,07,24,07,33,11.40
2008,07,24,07,34,11.40
2008,07,24,07,35,11.40
2008,07,24,07,36,11.40
2008,07,24,07,37,11.40
2008,07,24,07,38,11.40
2008,07,24,07,39,11.40
2008,07,24,07,40,11.40
2008,07,24,07,41,11.40
2008,07,24,07,42,11.40
2008,07,24,07,43,11.50
2008,07,24,07,44,11.50
2008,07,24,07,45,11.50
2008,07,24,07,46,11.50
2008,07,24,07,47,11.50
2008,07,24,07,48,11.50
2008,07,24,07,49,11.50
2008,07,24,07,50,11.60
2008,07,24,07,51,11.70
2008,07,24,07,52,11.80
2008,07,24,07,53,11.90
2008,07,24,07,54,12.00
2008,07,24,07,55,12.00
2008,07,24,07,56,12.10
2008,07,24,07,57,12.20
2008,07,24,07,58,12.30
2008,07,24,07,59,12.30
2008,07,24,08,00,12.30
2008,07,24,08,01,12.30
2008,07,24,08,02,12.40
2008,07,24,08,03,12.40
2008,07,24,08,04,12.40
2008,07,24,08,05,12.40
2008,07,24,08,06,12.50
2008,07,24,08,07,12.50
2008,07,24,08,08,12.50
2008,07,24,08,09,12.60
2008,07,24,08,10,12.60
2008,07,24,08,11,12.60
2008,07,24,08,12,12.70
2008,07,24,08,13,12.70
2008,07,24,08,14,12.80
2008,07,24,08,15,12.90
2008,07,24,08,16,13.00
2008,07,24,08,17,13.10
2008,07,24,08,18,13.30
2008,07,24,08,19,13.40
2008,07,24,08,20,13.50
2008,07,24,08,21,13.50
2008,07,24,08,22,13.60
2008,07,24,08,23,13.60
2008,07,24,08,24,13.60
2008,07,24,08,25,13.60
2008,07,24,08,26,13.60
2008,07,24,08,27,13.60
2008,07,24,08,28,13.70
2008,07,24,08,29,13.70
2008,07,24,08,30,13.80
2008,07,24,08,31,13.90
2008,07,24,08,32,14.10
2008,07,24,08,33,14.20
2008,07,24,08,34,14.30
2008,07,24,08,35,14.30
2008,07,24,08,36,14.40
2008,07,24,08,37,14.40
2008,07,24,08,38,14.40
2008,07,24,08,39,14.40
2008,07,24,08,40,14.50
2008,07,24,08,41,14.50
2008,07,24,08,42,14.60
2008,07,24,08,43,14.70
2008,07,24,08,44,14.70
2008,07,24,08,45,14.70
2008,07,24,08,46,14.60
2008,07,24,08,47,14.50
2008,07,24,08,48,14.40
2008,07,24,08,49,14.40
2008,07,24,08,50,14.30
2008,07,24,08,51,14.40
2008,07,24,08,52,14.50
2008,07,24,08,53,14.60
2008,07,24,08,54,14.70
2008,07,24,08,55,14.80
2008,07,24,08,56,15.00
2008,07,24,08,57,15.00
2008,07,24,08,58,15.00
2008,07,24,08,59,15.00
2008,07,24,09,00,15.00
2008,07,24,09,01,15.00
2008,07,24,09,02,15.00
2008,07,24,09,03,15.00
2008,07,24,09,04,15.00
2008,07,24,09,05,15.00
2008,07,24,09,06,15.10
2008,07,24,09,07,15.30
2008,07,24,09,08,15.40
2008,07,24,09,09,15.60
2008,07,24,09,10,15.80
2008,07,24,09,11,15.90
2008,07,24,09,12,16.00
2008,07,24,09,13,16.00
2008,07,24,09,14,16.00
2008,07,24,09,15,15.90
2008,07,24,09,16,15.80
2008,07,24,09,17,15.70
2008,07,24,09,18,15.70
2008,07,24,09,19,15.70
2008,07,24,09,20,15.80
2008,07,24,09,21,15.80
2008,07,24,09,22,15.90
2008,07,24,09,23,15.90
2008,07,24,09,24,15.90
2008,07,24,09,25,15.90
2008,07,24,09,26,15.80
2008,07,24,09,27,15.80
2008,07,24,09,28,15.90
2008,07,24,09,29,15.90
2008,07,24,09,30,16.00
2008,07,24,09,31,16.10
2008,07,24,09,32,16.20
2008,07,24,09,33,16.10
2008,07,24,09,34,16.00
2008,07,24,09,35,16.00
2008,07,24,09,36,16.00
2008,07,24,09,37,16.00
2008,07,24,09,38,15.90
2008,07,24,09,39,15.90
2008,07,24,09,40,15.90
2008,07,24,09,41,15.90
2008,07,24,09,42,16.00
2008,07,24,09,43,16.00
2008,07,24,09,44,16.00
2008,07,24,09,45,16.00
2008,07,24,09,46,15.90
2008,07,24,09,47,15.90
2008,07,24,09,48,15.80
2008,07,24,09,49,15.80
2008,07,24,09,50,15.80
2008,07,24,09,51,15.80
2008,07,24,09,52,15.90
2008,07,24,09,53,16.00
2008,07,24,09,54,16.10
2008,07,24,09,55,16.20
2008,07,24,09,56,16.30
2008,07,24,09,57,16.20
2008,07,24,09,58,16.20
2008,07,24,09,59,16.10
2008,07,24,10,00,16.20
2008,07,24,10,01,16.30
2008,07,24,10,02,16.50
2008,07,24,10,03,16.50
2008,07,24,10,04,16.50
2008,07,24,10,05,16.60
2008,07,24,10,06,16.70
2008,07,24,10,07,16.90
2008,07,24,10,08,17.00
2008,07,24,10,09,17.10
2008,07,24,10,10,17.00
2008,07,24,10,11,17.00
2008,07,24,10,12,16.80
2008,07,24,10,13,16.80
2008,07,24,10,14,16.80
2008,07,24,10,15,16.80
2008,07,24,10,16,16.80
2008,07,24,10,17,16.80
2008,07,24,10,18,16.80
2008,07,24,10,19,16.60
2008,07,24,10,20,16.40
2008,07,24,10,21,16.30
2008,07,24,10,22,16.30
2008,07,24,10,23,16.30
2008,07,24,10,24,16.30
2008,07,24,10,25,16.20
2008,07,24,10,26,16.20
2008,07,24,10,27,16.20
2008,07,24,10,28,16.20
2008,07,24,10,29,16.30
2008,07,24,10,30,16.40
2008,07,24,10,31,16.60
2008,07,24,10,32,16.60
2008,07,24,10,33,16.60
2008,07,24,10,34,16.60
2008,07,24,10,35,16.60
2008,07,24,10,36,16.40
2008,07,24,10,37,16.30
2008,07,24,10,38,16.30
2008,07,24,10,39,16.30
2008,07,24,10,40,16.20
2008,07,24,10,41,16.10
2008,07,24,10,42,16.00
2008,07,24,10,43,16.00
2008,07,24,10,44,16.00
2008,07,24,10,45,16.00
2008,07,24,10,46,16.20
2008,07,24,10,47,16.30
2008,07,24,10,48,16.40
2008,07,24,10,49,16.50
2008,07,24,10,50,16.60
2008,07,24,10,51,16.50
2008,07,24,10,52,16.60
2008,07,24,10,53,16.60
2008,07,24,10,54,16.60
2008,07,24,10,55,16.60
2008,07,24,10,56,16.60
2008,07,24,10,57,16.60
2008,07,24,10,58,16.70
2008,07,24,10,59,16.70
2008,07,24,11,00,16.80
2008,07,24,11,01,16.90
2008,07,24,11,02,17.10
2008,07,24,11,03,17.10
2008,07,24,11,04,17.20
2008,07,24,11,05,17.20
2008,07,24,11,06,17.00
2008,07,24,11,07,16.80
2008,07,24,11,08,16.70
2008,07,24,11,09,16.70
2008,07,24,11,10,16.80
2008,07,24,11,11,16.90
2008,07,24,11,12,17.00
2008,07,24,11,13,17.10
2008,07,24,11,14,17.10
2008,07,24,11,15,17.10
2008,07,24,11,16,17.20
2008,07,24,11,17,17.30
2008,07,24,11,18,17.30
2008,07,24,11,19,17.30
2008,07,24,11,20,17.30
2008,07,24,11,21,17.40
2008,07,24,11,22,17.40
2008,07,24,11,23,17.30
2008,07,24,11,24,17.20
2008,07,24,11,25,17.10
2008,07,24,11,26,17.20
2008,07,24,11,27,17.20
2008,07,24,11,28,17.40
2008,07,24,11,29,17.40
2008,07,24,11,30,17.40
2008,07,24,11,31,17.30
2008,07,24,11,32,17.30
2008,07,24,11,33,17.30
2008,07,24,11,34,17.30
2008,07,24,11,35,17.30
2008,07,24,11,36,17.30
2008,07,24,11,37,17.40
2008,07,24,11,38,17.50
2008,07,24,11,39,17.70
2008,07,24,11,40,17.70
2008,07,24,11,41,17.70
2008,07,24,11,42,17.70
2008,07,24,11,43,17.70
2008,07,24,11,44,17.70
2008,07,24,11,45,17.80
2008,07,24,11,46,17.80
2008,07,24,11,47,17.70
2008,07,24,11,48,17.70
2008,07,24,11,49,17.70
2008,07,24,11,50,17.60
2008,07,24,11,51,17.60
2008,07,24,11,52,17.60
2008,07,24,11,53,17.50
2008,07,24,11,54,17.50
2008,07,24,11,55,17.50
2008,07,24,11,56,17.50
2008,07,24,11,57,17.50
2008,07,24,11,58,17.50
2008,07,24,11,59,17.50
2008,07,24,12,00,17.40
2008,07,24,12,01,17.40
2008,07,24,12,02,17.50
2008,07,24,12,03,17.60
2008,07,24,12,04,17.70
2008,07,24,12,05,17.80
2008,07,24,12,06,17.70
2008,07,24,12,07,17.60
2008,07,24,12,08,17.60
2008,07,24,12,09,17.60
2008,07,24,12,10,17.60
2008,07,24,12,11,17.70
2008,07,24,12,12,17.70
2008,07,24,12,13,17.60
2008,07,24,12,14,17.60
2008,07,24,12,15,17.50
2008,07,24,12,16,17.40
2008,07,24,12,17,17.40
2008,07,24,12,18,17.40
2008,07,24,12,19,17.40
2008,07,24,12,20,17.30
2008,07,24,12,21,17.20
2008,07,24,12,22,17.20
2008,07,24,12,23,17.20
2008,07,24,12,24,17.20
2008,07,24,12,25,17.20
2008,07,24,12,26,17.20
2008,07,24,12,27,17.20
2008,07,24,12,28,17.20
2008,07,24,12,29,17.30
2008,07,24,12,30,17.30
2008,07,24,12,31,17.30
2008,07,24,12,32,17.30
2008,07,24,12,33,17.50
2008,07,24,12,34,17.70
2008,07,24,12,35,17.80
2008,07,24,12,36,17.70
2008,07,24,12,37,17.70
2008,07,24,12,38,17.70
2008,07,24,12,39,17.70
2008,07,24,12,40,17.70
2008,07,24,12,41,17.70
2008,07,24,12,42,17.70
2008,07,24,12,43,17.80
2008,07,24,12,44,17.90
2008,07,24,12,45,18.00
2008,07,24,12,46,18.20
2008,07,24,12,47,18.30
2008,07,24,12,48,18.40
2008,07,24,12,49,18.50
2008,07,24,12,50,18.50
2008,07,24,12,51,18.50
2008,07,24,12,52,18.40
2008,07,24,12,53,18.40
2008,07,24,12,54,18.30
2008,07,24,12,55,18.30
2008,07,24,12,56,18.30
2008,07,24,12,57,18.40
2008,07,24,12,58,18.40
2008,07,24,12,59,18.30
2008,07,24,13,00,18.30
2008,07,24,13,01,18.20
2008,07,24,13,02,18.20
2008,07,24,13,03,18.10
2008,07,24,13,04,17.90
2008,07,24,13,05,17.90
2008,07,24,13,06,18.00
2008,07,24,13,07,18.10
2008,07,24,13,08,18.20
2008,07,24,13,09,18.40
2008,07,24,13,10,18.40
2008,07,24,13,11,18.40
2008,07,24,13,12,18.30
2008,07,24,13,13,18.30
2008,07,24,13,14,18.20
2008,07,24,13,15,18.20
2008,07,24,13,16,18.20
2008,07,24,13,17,18.20
2008,07,24,13,18,18.30
2008,07,24,13,19,18.40
2008,07,24,13,20,18.50
2008,07,24,13,21,18.60
2008,07,24,13,22,18.70
2008,07,24,13,23,18.70
2008,07,24,13,24,18.80
2008,07,24,13,25,18.90
2008,07,24,13,26,18.90
2008,07,24,13,27,18.90
2008,07,24,13,28,18.80
2008,07,24,13,29,18.80
2008,07,24,13,30,18.80
2008,07,24,13,31,18.80
2008,07,24,13,32,18.90
2008,07,24,13,33,19.00
2008,07,24,13,34,19.00
2008,07,24,13,35,19.10
2008,07,24,13,36,19.10
2008,07,24,13,37,19.10
2008,07,24,13,38,19.10
2008,07,24,13,39,19.00
2008,07,24,13,40,19.10
2008,07,24,13,41,19.10
2008,07,24,13,42,19.20
2008,07,24,13,43,19.20
2008,07,24,13,44,19.20
2008,07,24,13,45,19.20
2008,07,24,13,46,19.20
2008,07,24,13,47,19.20
2008,07,24,13,48,19.20
2008,07,24,13,49,19.20
2008,07,24,13,50,19.30
2008,07,24,13,51,19.40
2008,07,24,13,52,19.40
2008,07,24,13,53,19.30
2008,07,24,13,54,19.20
2008,07,24,13,55,19.10
2008,07,24,13,56,19.10
2008,07,24,13,57,19.10
2008,07,24,13,58,19.10
2008,07,24,13,59,19.10
2008,07,24,14,00,19.20
2008,07,24,14,01,19.20
2008,07,24,14,02,19.30
2008,07,24,14,03,19.30
2008,07,24,14,04,19.30
2008,07,24,14,05,19.40
2008,07,24,14,06,19.50
2008,07,24,14,07,19.60
2008,07,24,14,08,19.60
2008,07,24,14,09,19.70
2008,07,24,14,10,19.80
2008,07,24,14,11,19.90
2008,07,24,14,12,19.90
2008,07,24,14,13,19.90
2008,07,24,14,14,19.90
2008,07,24,14,15,19.90
2008,07,24,14,16,19.80
2008,07,24,14,17,19.70
2008,07,24,14,18,19.70
2008,07,24,14,19,19.70
2008,07,24,14,20,19.70
2008,07,24,14,21,19.80
2008,07,24,14,22,19.90
2008,07,24,14,23,20.00
2008,07,24,14,24,20.00
2008,07,24,14,25,20.00
2008,07,24,14,26,20.00
2008,07,24,14,27,20.00
2008,07,24,14,28,20.10
2008,07,24,14,29,20.20
2008,07,24,14,30,20.30
2008,07,24,14,31,20.40
2008,07,24,14,32,20.40
2008,07,24,14,33,20.40
2008,07,24,14,34,20.40
2008,07,24,14,35,20.30
2008,07,24,14,36,20.30
2008,07,24,14,37,20.20
2008,07,24,14,38,20.20
2008,07,24,14,39,20.30
2008,07,24,14,40,20.30
2008,07,24,14,41,20.30
2008,07,24,14,42,20.30
2008,07,24,14,43,20.30
2008,07,24,14,44,20.30
2008,07,24,14,45,20.30
2008,07,24,14,46,20.30
2008,07,24,14,47,20.30
2008,07,24,14,48,20.30
2008,07,24,14,49,20.20
2008,07,24,14,50,20.10
2008,07,24,14,51,20.00
2008,07,24,14,52,20.00
2008,07,24,14,53,19.90
2008,07,24,14,54,19.90
2008,07,24,14,55,19.90
2008,07,24,14,56,19.90
2008,07,24,14,57,19.90
2008,07,24,14,58,20.00
2008,07,24,14,59,20.00
2008,07,24,15,00,20.00
2008,07,24,15,01,20.00
2008,07,24,15,02,20.00
2008,07,24,15,03,20.10
2008,07,24,15,04,20.10
2008,07,24,15,05,20.10
2008,07,24,15,06,20.00
2008,07,24,15,07,20.00
2008,07,24,15,08,20.00
2008,07,24,15,09,20.00
2008,07,24,15,10,20.10
2008,07,24,15,11,20.10
2008,07,24,15,12,20.20
2008,07,24,15,13,20.10
2008,07,24,15,14,20.10
2008,07,24,15,15,20.10
2008,07,24,15,16,20.20
2008,07,24,15,17,20.30
2008,07,24,15,18,20.40
2008,07,24,15,19,20.50
2008,07,24,15,20,20.50
2008,07,24,15,21,20.50
2008,07,24,15,22,20.60
2008,07,24,15,23,20.70
2008,07,24,15,24,20.80
2008,07,24,15,25,20.90
2008,07,24,15,26,21.00
2008,07,24,15,27,20.90
2008,07,24,15,28,20.80
2008,07,24,15,29,20.80
2008,07,24,15,30,20.80
2008,07,24,15,31,20.70
2008,07,24,15,32,20.60
2008,07,24,15,33,20.60
2008,07,24,15,34,20.60
2008,07,24,15,35,20.60
2008,07,24,15,36,20.60
2008,07,24,15,37,20.60
2008,07,24,15,38,20.70
2008,07,24,15,39,20.70
2008,07,24,15,40,20.70
2008,07,24,15,41,20.80
2008,07,24,15,42,20.90
2008,07,24,15,43,21.00
2008,07,24,15,44,21.00
2008,07,24,15,45,21.10
2008,07,24,15,46,21.20
2008,07,24,15,47,21.20
2008,07,24,15,48,21.10
2008,07,24,15,49,21.00
2008,07,24,15,50,21.00
2008,07,24,15,51,20.90
2008,07,24,15,52,21.00
2008,07,24,15,53,21.00
2008,07,24,15,54,21.00
2008,07,24,15,55,21.00
2008,07,24,15,56,21.00
2008,07,24,15,57,20.90
2008,07,24,15,58,20.90
2008,07,24,15,59,21.00
2008,07,24,16,00,21.00
2008,07,24,16,01,21.10
2008,07,24,16,02,21.10
2008,07,24,16,03,21.20
2008,07,24,16,04,21.30
2008,07,24,16,05,21.40
2008,07,24,16,06,21.40
2008,07,24,16,07,21.40
2008,07,24,16,08,21.30
2008,07,24,16,09,21.40
2008,07,24,16,10,21.50
2008,07,24,16,11,21.50
2008,07,24,16,12,21.40
2008,07,24,16,13,21.30
2008,07,24,16,14,21.20
2008,07,24,16,15,21.10
2008,07,24,16,16,21.00
2008,07,24,16,17,20.90
2008,07,24,16,18,21.10
2008,07,24,16,19,21.20
2008,07,24,16,20,21.30
2008,07,24,16,21,21.40
2008,07,24,16,22,21.40
2008,07,24,16,23,21.40
2008,07,24,16,24,21.40
2008,07,24,16,25,21.40
2008,07,24,16,26,21.40
2008,07,24,16,27,21.40
2008,07,24,16,28,21.30
2008,07,24,16,29,21.20
2008,07,24,16,30,21.10
2008,07,24,16,31,20.90
2008,07,24,16,32,20.80
2008,07,24,16,33,20.70
2008,07,24,16,34,20.70
2008,07,24,16,35,20.60
2008,07,24,16,36,20.60
2008,07,24,16,37,20.60
2008,07,24,16,38,20.60
2008,07,24,16,39,20.70
2008,07,24,16,40,20.80
2008,07,24,16,41,20.90
2008,07,24,16,42,20.90
2008,07,24,16,43,21.00
2008,07,24,16,44,21.10
2008,07,24,16,45,21.20
2008,07,24,16,46,21.30
2008,07,24,16,47,21.40
2008,07,24,16,48,21.50
2008,07,24,16,49,21.60
2008,07,24,16,50,21.60
2008,07,24,16,51,21.60
2008,07,24,16,52,21.70
2008,07,24,16,53,21.70
2008,07,24,16,54,21.80
2008,07,24,16,55,21.80
2008,07,24,16,56,21.80
2008,07,24,16,57,21.90
2008,07,24,16,58,22.00
2008,07,24,16,59,22.10
2008,07,24,17,00,22.20
2008,07,24,17,01,22.20
2008,07,24,17,02,22.40
2008,07,24,17,03,22.50
2008,07,24,17,04,22.70
2008,07,24,17,05,22.60
2008,07,24,17,06,22.40
2008,07,24,17,07,22.20
2008,07,24,17,08,22.00
2008,07,24,17,09,21.80
2008,07,24,17,10,21.80
2008,07,24,17,11,21.70
2008,07,24,17,12,21.70
2008,07,24,17,13,21.60
2008,07,24,17,14,21.50
2008,07,24,17,15,21.50
2008,07,24,17,16,21.50
2008,07,24,17,17,21.50
2008,07,24,17,18,21.60
2008,07,24,17,19,21.60
2008,07,24,17,20,21.60
2008,07,24,17,21,21.60
2008,07,24,17,22,21.60
2008,07,24,17,23,21.70
2008,07,24,17,24,21.90
2008,07,24,17,25,22.10
2008,07,24,17,26,22.10
2008,07,24,17,27,21.90
2008,07,24,17,28,21.80
2008,07,24,17,29,21.60
2008,07,24,17,30,21.50
2008,07,24,17,31,21.40
2008,07,24,17,32,21.30
2008,07,24,17,33,21.30
2008,07,24,17,34,21.20
2008,07,24,17,35,21.20